Theta_e
303 303 304 304 304 304 304 304 304 305 305 308 309 310 312 312 312 303 302 305 298 293 295 301 304 298 299 298 293 297 293 296 294 287 286 285 284 287 286 289 288 285 282 278 282 280 278 288 287 280 283 285 286 287
303 304 302 302 303 303 303 303 304 304 306 307 307 308 311 312 312 306 298 305 304 296 295 301 301 302 301 301 299 297 293 292 298 290 289 291 287 288 287 283 293 282 287 283 284 283 289 288 285 290 287 285 287 288
302 302 302 302 302 302 303 303 303 304 305 306 307 308 310 312 312 307 301 301 299 294 295 296 300 306 310 306 308 294 297 302 301 300 294 293 287 290 285 287 289 291 293 286 284 288 287 287 290 290 288 288 291 294
301 301 301 302 302 302 303 302 305 305 306 306 307 308 310 311 311 308 300 301 297 294 287 294 307 302 308 307 309 306 302 303 304 299 294 293 288 296 288 289 290 290 290 287 285 288 286 290 288 288 287 293 292 293
300 300 300 300 301 301 302 303 304 305 306 307 308 309 309 310 310 307 303 303 301 294 289 290 297 302 307 309 306 307 304 302 298 296 293 293 294 293 292 291 288 289 285 283 282 286 284 284 287 289 291 291 291 292
300 300 300 300 300 301 301 302 304 305 305 307 307 309 309 309 306 300 295 303 304 301 291 287 299 299 303 307 306 304 304 303 300 297 296 297 299 295 290 286 291 288 291 290 286 287 285 287 290 290 291 292 292 292
299 300 300 300 300 300 300 301 302 303 305 307 307 309 309 306 303 297 296 299 302 302 292 288 291 304 305 306 304 303 305 303 303 300 296 296 297 296 292 283 288 289 294 292 292 291 287 288 286 288 292 293 293 294
299 299 299 299 300 300 301 301 302 303 305 306 307 306 305 304 303 299 304 304 302 297 295 288 290 296 307 301 298 305 302 302 302 299 298 295 297 295 289 292 293 296 294 292 292 292 289 289 290 288 291 292 290 291
299 299 299 299 299 299 300 301 302 304 307 306 305 304 302 299 296 299 305 305 302 297 290 291 288 288 304 302 302 302 304 296 303 297 295 296 294 289 294 293 294 293 291 291 292 291 289 288 288 288 289 289 289 290
299 299 299 299 300 299 300 300 301 303 304 303 302 297 294 300 305 304 298 294 294 293 293 287 293 290 296 295 297 300 301 295 292 296 298 293 293 297 296 294 293 294 294 294 291 289 288 287 287 286 286 288 289 290
299 299 299 299 300 300 299 300 301 302 303 300 296 295 302 306 300 296 291 289 289 287 290 290 292 290 299 292 294 299 296 297 289 293 292 290 289 295 296 294 294 295 295 295 294 293 291 289 287 286 287 288 289 289
299 299 299 299 299 300 300 300 300 300 299 298 298 300 301 297 293 289 289 291 288 288 295 293 296 297 300 304 297 298 294 296 289 299 293 287 294 296 295 294 294 294 295 295 294 293 291 290 288 287 287 288 290 291
298 298 299 299 299 299 300 300 301 301 301 301 296 293 292 291 285 285 284 289 290 296 301 300 294 301 302 303 299 298 293 291 299 292 290 294 297 296 294 294 294 295 295 294 293 293 292 290 290 288 288 290 291 291
298 298 298 298 299 299 300 300 301 300 298 293 290 284 287 286 287 290 291 295 300 302 300 300 298 297 300 296 298 293 296 297 290 286 289 296 296 295 295 295 295 294 294 293 293 293 292 291 290 291 291 291 292 292
298 298 298 298 299 299 301 301 301 301 296 290 290 283 287 292 295 298 300 301 302 301 299 298 298 298 296 293 295 296 292 289 291 289 296 297 297 296 294 295 295 294 293 293 294 293 292 292 291 292 292 293 294 294
298 297 296 298 299 300 301 302 301 300 295 291 290 287 291 291 292 296 297 297 303 301 301 300 294 290 293 295 293 292 290 288 293 298 299 298 297 296 295 295 296 296 294 294 294 293 293 292 292 293 295 293 294 294
297 293 298 299 299 300 301 298 297 292 290 289 287 291 291 291 290 291 294 296 303 299 294 294 289 290 297 293 292 296 293 297 300 301 301 299 297 296 296 297 297 296 295 294 294 294 294 294 294 294 292 294 295 295
293 296 300 299 299 298 298 296 292 290 286 288 287 290 294 295 294 295 297 302 301 297 296 292 296 291 291 291 292 298 299 301 304 302 301 300 299 299 298 297 297 297 297 296 295 295 295 294 293 293 294 295 295 294
296 298 299 300 299 295 290 291 293 285 287 290 291 293 293 292 294 295 297 303 303 303 298 296 291 291 294 298 299 300 301 301 302 302 302 301 300 299 299 299 299 297 297 296 296 295 295 296 296 295 296 296 294 295
299 299 299 299 298 291 288 288 292 287 285 289 292 290 291 292 294 296 299 299 299 297 293 292 292 296 300 301 304 304 303 302 304 301 300 301 300 300 299 299 298 298 297 297 297 295 296 296 296 297 296 296 295 294
298 297 298 297 293 291 288 288 288 289 291 290 293 292 292 294 295 295 296 300 296 294 292 295 296 300 305 303 304 307 305 305 303 303 301 300 301 301 300 300 301 299 298 297 296 295 295 295 296 296 294 294 294 294
294 298 294 294 290 290 288 291 289 292 291 291 292 294 292 292 292 294 299 295 294 296 297 297 300 303 303 302 304 307 309 306 307 304 302 300 300 300 300 301 300 299 298 298 297 295 295 296 298 298 296 296 295 296
296 295 291 291 286 285 284 293 288 289 286 288 291 288 292 293 296 301 294 296 297 300 300 301 303 304 303 306 307 307 308 307 305 305 304 303 303 303 302 301 301 300 298 298 299 297 295 294 295 295 295 295 295 296
297 290 286 287 284 282 290 288 291 290 290 288 287 288 291 295 300 295 292 295 299 301 300 301 303 302 305 305 304 303 304 306 307 306 306 305 302 302 302 302 302 302 301 300 299 297 296 296 294 295 296 295 295 293
285 285 285 283 288 285 285 286 287 287 286 288 287 288 292 298 292 292 292 296 300 301 301 303 303 303 303 303 305 306 308 306 305 304 305 306 305 304 303 303 302 303 303 300 298 297 296 296 295 294 294 294 293 294
281 287 284 286 286 285 285 284 286 287 288 287 290 293 296 293 290 290 296 300 302 303 305 304 302 302 303 305 304 306 306 307 307 305 306 306 305 304 302 301 300 300 303 302 299 297 296 295 295 294 293 292 289 293
282 286 290 293 293 291 289 291 292 290 289 288 291 291 291 288 289 295 296 302 305 306 309 308 307 305 305 305 308 308 309 309 307 308 309 309 307 307 305 303 301 302 304 303 301 299 297 295 294 294 294 293 293 294
289 291 287 291 291 293 289 290 290 289 290 294 294 290 290 291 293 300 299 305 309 310 309 309 310 309 307 307 306 307 306 307 306 310 309 309 309 309 309 308 307 295 305 305 303 301 299 297 295 295 296 295 295 296
289 293 293 289 291 291 291 290 291 294 297 297 293 293 296 302 304 303 305 306 309 308 306 303 304 307 308 309 309 308 309 306 304 303 302 302 303 305 307 307 303 304 305 301 290 297 300 298 298 298 298 297 297 297
290 294 290 290 288 288 292 297 294 296 299 300 302 301 303 305 307 308 307 306 305 306 306 306 306 304 304 303 303 304 307 307 306 304 302 301 303 307 307 306 306 305 305 303 300 296 287 294 291 296 297 299 299 298
296 293 292 292 292 295 296 300 300 298 300 301 303 300 299 303 307 308 306 308 306 305 306 305 305 304 304 303 303 303 302 306 307 305 304 305 307 307 309 309 309 307 306 305 302 299 297 298 298 299 299 299 300 299
295 293 293 291 293 299 301 298 298 299 299 299 299 301 301 300 298 303 306 307 307 304 298 301 305 306 307 307 306 304 296 304 305 306 307 307 308 309 308 309 310 308 306 304 303 301 299 299 298 298 299 299 301 302
294 294 295 294 294 293 297 297 295 296 297 295 294 296 297 296 294 300 307 309 308 307 306 306 307 307 308 307 305 303 300 303 295 288 289 288 287 292 308 310 309 307 304 303 302 302 301 300 298 299 298 296 296 297
Wind_Speed
9 11 12 13 14 14 15 16 17 18 19 20 19 19 16 12 8 6 3 3 3 3 10 10 11 10 14 9 6 8 7 5 4 5 2 4 3 4 3 6 4 5 6 4 5 5 5 15 7 7 10 17 19 24
10 10 11 13 13 14 14 16 17 18 17 19 20 19 19 15 9 12 3 1 2 3 8 15 21 26 20 26 6 3 6 8 2 3 3 3 4 4 5 4 1 3 1 4 2 5 5 13 8 13 13 17 15 26
10 12 12 12 14 15 15 17 17 17 17 18 19 19 19 17 9 17 3 1 2 3 7 7 13 18 10 19 15 3 2 2 2 3 2 2 5 2 3 4 3 2 2 3 7 1 10 14 13 15 16 17 19 18
10 11 13 13 13 14 14 17 17 18 18 18 19 17 17 17 20 18 2 2 1 3 5 8 11 16 19 12 13 10 8 2 2 0 3 4 3 3 3 5 3 2 4 5 8 4 14 1 14 18 17 16 19 21
11 12 14 14 14 14 15 17 18 19 20 19 19 19 17 21 5 7 2 2 3 1 5 8 18 18 10 7 10 10 8 5 2 1 3 4 3 2 3 3 2 2 2 2 4 8 4 9 15 15 14 14 17 17
11 12 13 14 15 16 15 17 19 19 22 20 21 22 20 10 10 2 3 3 6 3 4 6 8 11 13 9 7 5 8 4 3 3 3 4 6 2 3 3 2 2 5 5 4 5 7 9 9 11 11 11 14 16
11 11 12 14 15 16 16 18 20 21 22 22 22 20 11 13 2 1 2 1 3 3 3 6 7 6 8 2 4 3 5 3 3 3 4 4 3 4 3 2 3 6 4 4 2 7 4 6 6 9 12 10 11 14
11 11 12 14 15 16 18 19 20 22 23 22 3 6 6 5 4 4 3 11 3 2 2 5 7 6 2 4 3 4 4 3 4 4 3 4 3 3 4 5 5 4 9 5 3 3 3 3 5 8 11 9 13 14
11 14 12 13 16 16 17 19 21 24 20 3 2 2 2 2 2 1 5 10 1 1 3 3 4 6 3 1 2 2 4 3 4 5 4 1 3 4 2 7 7 7 5 5 2 4 4 3 6 7 8 10 10 11
12 13 13 14 15 15 16 18 19 21 9 5 4 2 2 1 8 6 1 3 3 2 3 5 4 7 6 3 3 2 3 4 4 8 2 4 2 6 8 8 7 6 5 1 4 2 1 2 3 5 7 5 8 9
12 12 13 13 14 15 15 16 17 19 6 1 2 2 2 2 2 2 2 3 3 4 5 6 7 7 4 5 3 4 3 4 1 4 4 2 2 4 7 8 7 6 3 6 7 5 5 4 3 6 6 6 6 8
13 13 14 14 14 15 15 15 14 6 2 7 5 5 3 3 3 3 4 3 5 6 7 5 5 7 5 2 4 5 5 4 4 3 2 1 3 9 9 7 7 4 4 6 8 7 8 7 6 6 6 6 6 6
13 13 14 14 14 15 15 15 13 12 11 3 3 4 3 2 5 6 6 5 5 6 0 3 6 5 2 1 5 3 3 5 2 2 3 3 6 9 9 6 5 5 7 7 9 7 8 8 9 7 7 5 6 7
14 14 14 14 15 15 15 14 12 7 3 3 3 5 5 5 7 8 7 5 3 3 6 3 2 3 2 4 5 5 6 3 3 3 2 4 7 9 6 5 6 7 8 5 8 9 8 8 7 8 7 7 7 7
15 15 16 16 17 16 13 13 9 3 3 3 4 6 8 9 9 10 7 3 2 5 2 3 1 1 2 2 5 7 3 4 3 3 4 7 7 10 7 6 8 9 7 5 7 8 8 8 8 8 9 6 7 6
13 13 14 19 17 13 6 6 4 3 3 4 6 4 9 9 9 6 9 7 0 2 2 1 2 3 5 5 8 4 3 2 3 4 8 10 8 8 7 6 6 9 8 7 7 9 9 8 7 4 10 9 7 6
13 5 7 12 10 7 7 2 1 5 6 6 5 8 10 11 13 13 11 9 2 3 2 1 3 5 6 4 5 1 3 1 7 8 7 12 10 8 9 7 8 9 9 9 8 8 9 9 7 6 8 7 8 7
8 7 13 14 9 6 4 5 4 6 8 7 6 9 10 9 10 12 10 3 3 3 2 3 4 4 5 4 7 2 2 7 3 9 9 11 9 9 8 7 8 10 10 10 10 9 10 10 9 6 6 6 9 7
11 10 17 18 7 2 3 4 5 6 9 8 11 12 11 12 12 13 13 4 3 3 2 2 5 4 4 3 3 4 4 4 3 8 9 13 12 11 10 8 7 6 9 11 9 8 8 10 8 7 7 7 6 6
23 20 17 9 3 5 5 4 2 5 6 7 11 13 12 11 11 11 11 6 7 4 5 5 6 7 2 5 8 1 4 4 6 10 8 9 9 12 12 11 8 8 7 6 9 11 8 6 6 8 8 9 8 8
16 11 14 9 4 5 3 3 5 5 6 7 9 12 11 9 11 11 9 6 6 4 5 7 8 9 2 3 8 8 5 4 9 8 9 9 10 9 9 8 9 8 8 7 8 8 8 7 6 5 6 4 3 4
3 18 4 7 4 4 5 6 5 4 5 7 7 5 6 11 12 12 7 6 5 7 6 7 9 7 4 8 14 7 5 5 6 7 9 11 10 9 8 8 9 7 7 7 6 6 5 5 8 7 9 8 9 6
13 7 4 4 5 7 8 7 8 7 6 5 4 7 6 6 6 3 2 4 6 9 10 12 14 9 9 15 9 8 4 2 4 7 9 9 7 8 7 5 6 7 6 5 6 7 6 5 8 7 5 5 4 6
7 4 5 6 8 6 6 6 4 4 6 9 2 6 6 3 0 4 5 6 9 9 11 13 11 9 9 13 3 3 7 4 4 5 7 9 8 8 8 7 6 5 6 6 5 7 5 5 7 5 6 5 4 5
5 7 5 8 8 7 7 6 7 6 7 8 14 9 4 1 4 6 5 6 7 8 10 9 8 9 7 7 7 7 15 4 6 4 3 8 8 7 7 6 5 6 6 7 5 7 7 6 6 5 5 6 6 7
5 9 10 9 6 7 7 11 11 13 10 11 4 3 2 3 4 6 2 4 3 4 3 5 5 4 2 4 8 4 4 6 4 4 3 2 6 8 8 7 6 4 6 9 9 10 10 9 8 7 5 6 7 6
5 7 8 7 4 4 4 3 3 5 5 5 3 3 3 4 4 3 7 4 2 3 3 3 6 7 8 4 4 3 4 1 2 5 4 3 8 4 4 6 7 6 7 10 9 10 11 11 9 8 8 8 7 6
5 5 5 5 6 4 3 3 4 5 4 3 1 4 3 2 3 4 7 7 1 5 7 8 7 6 9 7 5 5 5 3 13 6 6 6 5 3 3 3 4 14 7 9 10 10 10 11 9 8 7 8 8 8
5 5 5 9 8 5 6 5 5 5 4 3 2 3 1 3 5 5 5 3 2 2 5 5 4 4 2 5 7 8 8 7 5 9 7 2 1 2 3 3 3 5 4 6 8 11 13 11 9 8 8 7 8 8
4 5 4 5 4 4 2 2 4 5 3 3 2 4 2 3 4 6 6 7 8 4 8 5 2 5 5 5 6 2 5 5 4 4 3 2 3 5 4 4 4 4 4 7 7 6 7 9 4 4 5 5 5 8
2 4 4 5 5 6 12 10 9 10 10 6 2 3 4 2 2 6 7 6 2 4 6 9 2 2 3 2 6 3 5 6 10 10 8 5 5 4 2 4 4 4 6 6 6 8 7 7 7 6 6 6 7 6
7 5 3 3 3 5 5 2 4 5 5 6 6 6 5 3 3 2 5 6 4 4 9 6 6 13 10 7 10 10 9 8 8 7 9 6 6 6 4 3 5 7 2 9 5 7 11 9 6 6 6 8 8 8
3 5 6 4 3 3 2 2 2 3 4 4 5 6 6 5 4 4 6 7 4 4 6 6 8 7 10 10 10 9 9 8 8 8 9 8 7 6 5 5 4 5 8 6 5 3 6 8 7 9 7 6 8 8
Wind_Direction
322 322 325 326 329 335 335 335 335 337 327 326 331 327 324 317 230 179 257 245 199 245 281 262 280 300 295 285 259 308 342 349 347 9 335 344 316 293 313 315 341 315 330 335 325 288 325 0 336 10 293 297 303 306
322 324 325 323 326 329 332 331 335 332 328 325 326 327 322 319 301 188 263 287 158 219 267 303 278 266 248 242 261 245 267 319 313 4 1 311 283 277 330 298 281 337 266 299 261 279 354 343 285 314 320 306 312 316
318 317 321 322 324 324 331 326 330 326 326 320 320 323 318 312 308 184 215 197 174 266 265 259 269 277 260 219 218 184 251 4 39 139 266 267 266 307 304 311 287 354 106 275 329 109 341 314 333 329 328 314 322 322
314 319 318 319 321 321 323 322 319 322 319 317 317 317 315 315 307 184 183 191 133 276 270 275 323 308 291 282 219 186 210 343 198 347 248 251 243 203 252 259 214 202 309 298 258 308 318 203 337 328 325 339 340 341
310 313 313 318 319 324 328 324 320 323 323 319 317 314 318 316 237 156 232 238 223 237 297 303 293 272 287 287 196 199 170 192 204 243 245 260 254 301 242 251 299 143 232 309 289 323 265 292 318 333 346 358 346 355
305 309 313 317 322 324 330 322 317 322 326 321 317 315 306 142 117 125 276 173 209 178 292 303 318 284 293 270 184 199 174 186 161 208 245 258 226 141 280 258 166 178 202 183 267 304 269 291 305 349 343 3 2 14
302 308 317 319 323 329 333 324 319 323 322 320 322 305 149 146 162 209 293 74 347 115 263 289 277 257 243 249 159 170 183 163 157 228 224 233 229 134 266 265 191 222 155 176 252 297 299 1 351 354 352 12 11 31
301 309 316 320 323 334 334 327 323 321 316 318 349 88 128 161 298 294 244 194 191 184 243 272 274 281 220 218 205 158 156 164 222 225 260 229 103 178 269 241 182 149 127 112 39 30 49 344 32 27 9 17 35 39
300 301 311 319 319 327 329 331 328 324 321 286 133 149 204 218 227 246 348 153 190 261 267 255 276 295 268 3 294 247 120 210 232 218 235 162 191 212 238 66 76 64 94 127 116 92 62 68 44 51 24 26 46 45
292 297 307 309 314 322 326 330 329 334 347 336 284 255 236 33 111 127 220 190 189 235 225 251 237 259 328 315 286 226 182 156 228 219 195 171 139 92 86 79 85 76 92 301 172 162 116 90 87 84 56 35 48 51
287 296 300 305 310 316 322 325 332 330 298 278 299 278 330 239 234 229 227 217 176 242 217 237 230 241 253 224 260 212 231 267 272 258 156 256 101 106 110 95 102 86 67 89 94 88 101 105 114 101 87 70 63 59
285 289 294 299 305 309 314 320 329 326 351 310 288 282 266 247 225 258 236 194 211 250 190 222 226 211 257 221 223 254 202 208 246 180 90 230 119 123 115 105 106 106 97 98 111 108 123 112 119 104 94 93 86 82
278 284 288 294 298 303 308 311 313 308 307 273 229 249 244 175 236 220 216 205 232 207 359 322 35 273 259 251 263 266 289 232 198 98 202 84 125 101 114 119 116 123 102 99 109 109 114 117 122 129 123 105 108 96
272 274 278 284 288 290 293 297 304 319 290 252 245 240 227 211 232 212 241 301 316 292 309 249 235 303 352 28 311 266 229 88 256 180 96 147 129 116 116 130 136 120 120 123 129 127 124 129 128 131 127 128 124 111
273 279 280 278 273 272 281 285 273 247 266 259 253 241 235 239 265 275 287 322 352 311 329 304 357 351 256 175 253 249 199 225 46 108 136 135 130 131 138 142 125 130 128 134 127 128 130 134 142 142 139 141 131 135
268 282 262 259 264 269 255 297 185 198 238 239 239 252 269 274 277 331 320 311 83 311 324 108 314 307 227 231 236 212 237 105 157 121 124 133 132 132 142 140 134 131 131 134 128 133 138 144 145 159 148 164 151 149
256 237 249 241 252 248 188 249 200 215 232 227 230 238 266 279 280 288 284 291 63 349 27 17 281 241 261 258 260 70 88 28 129 132 133 139 144 146 140 146 132 143 132 136 136 139 138 146 137 117 129 147 147 172
233 244 243 247 245 267 240 203 244 237 241 230 239 235 238 243 264 267 273 254 122 147 160 206 300 246 282 293 10 341 311 85 284 123 128 143 148 145 141 144 138 145 148 146 147 144 139 149 156 159 162 172 137 168
228 225 229 245 230 204 255 223 233 254 236 236 224 238 244 253 257 261 272 227 148 117 145 202 243 253 237 242 323 344 38 105 222 133 140 153 156 150 143 143 145 142 149 161 155 158 165 168 165 164 163 171 157 165
226 229 243 241 167 196 213 233 217 248 255 241 237 244 245 251 256 250 239 217 176 172 187 222 218 228 276 321 310 272 120 213 231 146 156 149 163 157 164 162 166 161 154 150 162 166 172 178 165 167 169 179 179 183
219 207 222 216 174 223 245 260 231 241 256 247 249 239 244 247 237 246 250 208 192 203 227 220 252 263 130 296 296 255 211 286 239 163 154 152 160 165 163 160 157 171 169 173 165 176 168 168 172 161 153 163 177 159
145 152 128 170 201 189 245 229 246 289 262 276 288 253 266 253 241 235 221 215 209 222 217 225 241 228 141 222 268 268 273 310 126 140 143 140 158 168 175 173 171 172 173 183 162 166 172 172 167 173 169 184 184 186
124 130 146 162 168 208 253 194 226 223 241 253 251 300 249 242 242 186 239 229 230 214 220 220 232 180 179 241 247 258 260 265 265 144 148 163 163 163 168 170 172 169 166 167 150 154 166 180 159 156 164 167 180 165
115 137 159 177 199 234 233 215 227 249 229 226 237 257 261 239 207 193 241 244 232 209 216 226 228 228 177 187 173 254 250 288 258 130 172 172 162 165 168 180 185 176 165 157 143 144 153 143 145 155 162 171 163 141
132 178 211 200 206 225 233 207 202 227 235 234 233 231 254 310 232 210 227 246 224 205 202 212 203 213 209 182 189 208 208 192 161 175 178 139 160 163 176 171 177 168 143 139 140 139 144 137 147 161 164 163 175 164
205 196 197 202 219 211 213 241 250 231 231 246 246 272 268 212 250 250 268 339 270 165 176 165 189 208 147 118 95 342 44 4 294 154 160 164 162 165 174 178 174 166 154 151 149 150 154 150 158 171 185 162 169 176
236 239 193 217 234 297 279 310 281 275 237 225 219 194 240 235 245 47 330 277 320 78 62 45 40 72 78 101 96 111 85 267 316 280 141 216 153 196 181 175 169 169 150 150 154 153 158 156 167 182 180 173 181 185
258 285 234 251 239 206 241 258 210 225 241 199 228 246 239 272 34 157 213 221 278 25 62 85 81 107 125 145 117 62 28 294 274 261 71 49 37 89 138 155 142 148 155 157 159 154 156 158 170 188 178 175 178 193
241 257 276 266 243 229 222 229 222 221 223 205 229 282 249 46 6 5 26 21 168 185 118 84 77 104 121 159 147 160 203 257 148 111 115 127 90 64 76 47 120 162 144 142 148 150 159 160 170 177 175 173 180 184
236 214 235 255 228 258 282 329 321 326 295 282 3 323 12 59 39 25 28 5 347 33 102 116 28 118 123 140 128 269 278 233 151 145 154 159 192 162 159 177 188 179 143 144 137 128 114 148 122 158 178 182 175 180
247 169 240 218 231 210 220 227 217 230 218 209 159 87 73 109 78 42 19 26 335 46 63 74 169 349 217 216 256 185 95 79 79 62 38 36 50 52 140 182 169 161 145 132 138 149 158 164 169 175 184 199 185 181
183 230 252 258 257 191 222 254 91 82 75 66 49 34 11 358 72 50 5 350 34 4 48 331 263 180 192 113 83 76 78 74 65 54 45 36 27 5 322 332 109 106 195 162 164 158 166 156 174 220 204 207 183 209
209 222 195 207 236 181 240 238 112 97 56 46 40 15 7 4 53 16 351 358 355 32 11 1 5 338 100 99 100 90 77 80 86 80 71 59 37 12 29 44 78 106 109 101 102 141 165 188 205 224 217 156 131 115